Regional Weather Roundup
Issued by NWS

Home | Current Version | Previous Version | Graphics & Text | Print | Product List | Glossary On
Versions: 1 2 3 4 5 6 7 8 9 10 11 12 13 14 15 16 17 18 19 20 21 22 23 24 25 26 27
000
ASUS45 KBOU 282307
RWRCO

WEATHER ROUNDUP FOR COLORADO
NATIONAL WEATHER SERVICE DENVER/BOULDER CO
500 PM MDT SUN MAY 28 2017

NOTE: "FAIR" INDICATES FEW OR NO CLOUDS BELOW 12000 FEET WITH NO
SIGNIFICANT WEATHER AND/OR OBSTRUCTIONS TO VISIBILITY.

COZ001>005-013-030-031-290000-
...NORTHWEST COLORADO...

CITY           SKY/WX    TMP DP  RH WIND       PRES   REMARKS
CRAIG          FAIR      68  28  22 NE5       30.26F
HAYDEN         FAIR      64  28  25 W7        30.27F
MEEKER         FAIR      66  28  24 NW3       30.24F
RABBIT EARS PA NOT AVBL
STEAMBOAT SPGS NOT AVBL
WALDEN         NOT AVBL
$$

COZ006>008-011-290000-
...WEST CENTRAL VALLEYS...

CITY           SKY/WX    TMP DP  RH WIND       PRES   REMARKS
GRAND JUNCTION FAIR      77  10   7 W6        30.14F
MONTROSE       FAIR      73  12   9 N8        30.20F
EAGLE          SUNNY     68  12  11 SW6       30.25F
RIFLE          FAIR      75  14  10 VRB5      30.17F
DELTA          FAIR      80   4   5 S7        30.16F
NUCLA          FAIR      73  10   9 N8        30.23F
$$

COZ017>023-064>068-290000-
...SOUTHWEST COLORADO...

CITY           SKY/WX    TMP DP  RH WIND       PRES   REMARKS
DURANGO        FAIR      72   6   7 MISG      30.21F
CORTEZ         FAIR      76  11   8 W8        30.19F
PAGOSA SPRINGS FAIR      67   6   9 S8        30.27F
TELLURIDE      FAIR      62  14  15 W9G20     30.36S
WOLF CREEK PAS NOT AVBL
$$

COZ009-010-012-014-032>034-037-058>063-290000-
...CENTRAL COLORADO...

CITY           SKY/WX    TMP DP  RH WIND       PRES   REMARKS
ASPEN          FAIR      64  20  18 N3        30.27F
BUENA VISTA    PTSUNNY   63  13  14 SW12G21   30.28S
COPPER MTN     NOT AVBL
BERTHOUD PASS  NOT AVBL
COTTONWOOD PAS NOT AVBL
GUNNISON       FAIR      66  16  14 W17G24    30.25F
KREMMLING      NOT AVBL
LEADVILLE      PTSUNNY   56  17  21 NW12G20   30.37F
SALIDA         FAIR      69  15  12 CALM      30.31F
SUNLIGHT       NOT AVBL
WILKERSON PASS NOT AVBL
$$

COZ069>075-290000-
...SAN LUIS VALLEY/SANGRE DE CRISTO MOUNTAINS...

CITY           SKY/WX    TMP DP  RH WIND       PRES   REMARKS
ALAMOSA        FAIR      67  13  12 VRB5      30.26F
DEL NORTE      NOT AVBL
LA VETA PASS   NOT AVBL
SAGUACHE       NOT AVBL
$$

COZ035-036-038>040-290000-
...NORTHERN COLORADO FRONT RANGE...

CITY           SKY/WX    TMP DP  RH WIND       PRES   REMARKS
DENVER INTL AP FAIR      69  34  27 VRB5      30.21F
DMNS CITY PARK   N/A     70  33  25 E8        30.20S
AURORA         MOSUNNY   68  32  27 W3        30.22F
FRONT RANGE AP MOSUNNY   70  36  28 NW6G20    30.22F
ERIE MUNI ARPT NOT AVBL
BOULDER MUN AP NOT AVBL
CENTENNIAL     FAIR      68  33  27 NE7       30.22F
BROOMFIELD     PTSUNNY   72  36  26 N3        30.22F
FORT COLLINS   FAIR      68  36  30 NW21      30.20
LONGMONT       NOT AVBL
$$

COZ041-046-047-076>085-087-088-290000-
...PIKES PEAK/PALMER DIVIDE AND SOUTHERN FOOTHILLS...

CITY           SKY/WX    TMP DP  RH WIND       PRES   REMARKS
COLO. SPRINGS  FAIR      67  28  23 S7        30.25F
A. F. ACADEMY  PTSUNNY   66  30  25 SW9       30.25F
SCHRIEVER AFB  PTSUNNY   63  28  26 E5        30.26F
CHEYENNE MTN   FAIR      61  28  29 SE10      30.23F
ELLICOTT       FAIR     N/A N/A N/A E7        30.24F
FALCON         FAIR      64  27  24 SE5       30.30S
FORT CARSON    FAIR      67  29  24 SE9       30.23F
LIMON          FAIR      68  33  27 N7        30.22F
MONUMENT HILL  NOT AVBL
CANON CITY     NOT AVBL
WALSENBURG     FAIR      68  32  26 E7        30.25F
TRINIDAD       FAIR      68  27  21 CALM      30.25F
$$

COZ042>045-048>051-090-091-290000-
...NORTHEAST COLORADO...

CITY           SKY/WX    TMP DP  RH WIND       PRES   REMARKS
GREELEY ARPT   FAIR      73  35  25 SW3       30.17F
AKRON          FAIR      71  33  24 NW7       30.16F
BURLINGTON     FAIR      73  37  27 NW12      30.16F
WRAY           FAIR      79  34  19 NW12      30.10F
YUMA           NOT AVBL
STERLING       NOT AVBL
HOLYOKE        NOT AVBL
FORT MORGAN    PTSUNNY   76  30  18 W8G20     30.15F
$$

COZ086-089-092>099-290000-
...SOUTHEAST COLORADO...

CITY           SKY/WX    TMP DP  RH WIND       PRES   REMARKS
PUEBLO         FAIR      73  32  22 VRB5      30.18F
LA JUNTA       FAIR      75  36  24 CALM      30.17F
LAMAR          FAIR      76  37  24 N7        30.13F
SPRINGFIELD      N/A     70  40  33 N9        30.18F
$$




USA.gov is the U.S. government's official web portal to all federal, state and local government web resources and services.